Showing default

ICEYE-X26, 56961

Orbit data source: Space-Track

ICEYE-X26, 56961 is a payload satellite owned by ICEYE US (US) in SSO that was launched on Mon, 12 Jun 2023 UTC via an FALCON 9 launch vehicle from the Air Force Western Test Range (AFWTR). Payload-class satellites include a variety of spacecraft equipped with specific instruments for various scientific and technological missions. These include communications satellites like Starlink; space stations such as the ISS; scientific satellites like the Hubble; Earth observation satellites from companies like Planet Labs, Umbra, and HawkEye 360; GPS; miniature CubeSats for education and research; and military/defense satellites.

Loading next visibility...
Identifier
56961, 2023-084AF
Orbit
SSO
Last TLE update
18 hours ago
Origin
Manufacturer
ICEYE
Mission
Operational Commercial Radar Imaging
Bus & Motor
ICEYE, Unknown motor
Mass
90 kg wet, 89 kg dry
Launch date (UTC)
2023-06-12 (2 years ago)
Launch vehicle
FALCON 9
Launch site
Air Force Western Test Range (AFWTR)
Object type
Payload
Rocket body
Debris
Shape & HBR
Box + 1 Pan, 3.25 m
Radar Cross Section
0.825 m², Medium (>0.1 m² and < 1m²)

Expand to show TLE details & history

TLE from 18 hours ago
0 ICEYE-X26
1 56961U 23084AF  25186.31357738  .00034549  00000-0  62540-3 0  9998
2 56961  97.5632 320.4906 0002380  93.7019 266.4504 15.49585432114938
Epoch: 2025-07-05T07:31Z
TLE epoch observation values (Epoch: 2025-07-05T07:31:33.085Z)
Latitude
-0.00002°
Longitude
-75.95066°
Altitude
421.164 km
Speed
7.658 km/s
True Right ascension
21h 21m 57s
True Declination
0° 00' 00"
Sunlit
Object was in full shadow at epoch
Visualization orbit readout
Latitude
-27.24118°
Longitude
100.93518°
Altitude
428.82 km
Speed
7.652 km/s
Apparent Right ascension
05h 55m 35s
Apparent Declination
-50° 41' 37"
Sunlit
Object is in daylight
Visualization observer readout
Local Sidereal Time
13:24:34
Azimuth
233.14° WSW
Elevation
-42.878°
Doppler factor
1
Orbital elements
Apogee altitude
416.488 km
Perigee altitude
413.255 km
Semi-major axis
6,793.008 km
Eccentricity
0.00024
Inclination
97.5632°
RAAN
320.4906°
Arg. of periapsis
93.7019°
True anomaly
Unknown
Mean anomaly
266.4504°
Eccentric anomaly
Unknown
Mean motion
3.87659 °/min
Orbital period
92.87 mins
BSTAR
0.0006254
Loading maneuver chart data...
Loading SW <> Apogee altitude chart data...
Loading historical data...
Loading historical data...
Loading historical data...
Loading historical data...
Loading historical data...
Loading historical data...
Loading historical data...

ICEYE-X26 Visibility forecast

Observer location: undefined°, undefined°

Span
Click to sort rows by Start time (UTC) header in descending order
Start Az.
Max El. time (UTC)
Max El. Az.
Max El.
End time (UTC)
End Az.
4 mins2025-07-06 08:27:53.652Z127.189° SE2025-07-06 08:29:53.652Z81.368° E24.464°2025-07-06 08:31:53.652Z24.151° NE
4 mins2025-07-06 21:17:53.652Z52.702° ENE2025-07-06 21:19:53.652Z109.483° ESE22.895°2025-07-06 21:21:53.652Z152.324° SSE
|